KUH1 KTOL-KFWA

Flight info

Callsign KUH1
Flight time N/A
Altitude 3000
Route KTOL ILLIE TWERP FWA KFWA
Aircraft C172/L-VGD/C

Departure

Time 2026-04-26 20:00
Airport Eugene F. Kranz Toledo Express Airport (KTOL)

Arrival

Time N/A
Airport Fort Wayne International Airport (KFWA)
Time Latitude Longitude Altitude Speed Heading
2026-04-26 19:38 41.58993 -83.81243 678 ft 0 kts 338°
2026-04-26 19:47 41.58990 -83.81241 678 ft 3 kts 338°
2026-04-26 19:47 41.58972 -83.81232 678 ft 0 kts 338°
2026-04-26 19:53 41.58980 -83.81243 678 ft 7 kts 282°
2026-04-26 19:53 41.58918 -83.81339 679 ft 19 kts 228°
2026-04-26 19:53 41.58819 -83.81480 679 ft 22 kts 246°
2026-04-26 19:54 41.58755 -83.81694 680 ft 27 kts 248°
2026-04-26 19:54 41.58682 -83.81939 681 ft 29 kts 248°
2026-04-26 19:54 41.58603 -83.82189 682 ft 29 kts 245°
2026-04-26 19:54 41.58523 -83.82433 683 ft 28 kts 247°
2026-04-26 19:55 41.58415 -83.82633 684 ft 26 kts 224°
2026-04-26 19:55 41.58333 -83.82837 685 ft 24 kts 249°
2026-04-26 19:55 41.58271 -83.83040 683 ft 22 kts 245°
2026-04-26 19:55 41.58232 -83.83095 686 ft 0 kts 171°
2026-04-26 19:58 41.58218 -83.83092 687 ft 9 kts 172°
2026-04-26 19:58 41.58148 -83.82994 687 ft 24 kts 76°
2026-04-26 19:58 41.58261 -83.82657 685 ft 62 kts 66°
2026-04-26 19:59 41.58483 -83.81990 695 ft 94 kts 63°
2026-04-26 19:59 41.58784 -83.81172 823 ft 101 kts 63°
2026-04-26 19:59 41.59113 -83.80278 922 ft 111 kts 64°
2026-04-26 19:59 41.59443 -83.79335 1107 ft 112 kts 63°
2026-04-26 20:00 41.59803 -83.78391 1263 ft 114 kts 63°
2026-04-26 20:00 41.60176 -83.77429 1372 ft 117 kts 61°
2026-04-26 20:00 41.60389 -83.76392 1498 ft 119 kts 98°
2026-04-26 20:00 41.59985 -83.75493 1674 ft 113 kts 145°
2026-04-26 20:01 41.59260 -83.75148 1860 ft 110 kts 180°
2026-04-26 20:01 41.58504 -83.75360 1952 ft 113 kts 208°
2026-04-26 20:01 41.57858 -83.75944 2058 ft 114 kts 218°
2026-04-26 20:01 41.57261 -83.76635 2216 ft 112 kts 230°
2026-04-26 20:02 41.56739 -83.77412 2335 ft 115 kts 227°
2026-04-26 20:02 41.56197 -83.78192 2483 ft 112 kts 231°
2026-04-26 20:02 41.55729 -83.79084 2616 ft 111 kts 240°
2026-04-26 20:02 41.55471 -83.79629 2721 ft 110 kts 237°
2026-04-26 20:03 41.54884 -83.80820 2744 ft 119 kts 236°
2026-04-26 20:03 41.54407 -83.81724 2800 ft 119 kts 237°
2026-04-26 20:03 41.53938 -83.82622 2895 ft 117 kts 237°
2026-04-26 20:03 41.53477 -83.83507 2989 ft 116 kts 237°
2026-04-26 20:04 41.53007 -83.84411 2994 ft 117 kts 237°
2026-04-26 20:04 41.52588 -83.85319 2992 ft 113 kts 254°
2026-04-26 20:04 41.52406 -83.86327 2990 ft 111 kts 250°
2026-04-26 20:04 41.51957 -83.87153 2988 ft 112 kts 222°
2026-04-26 20:05 41.51345 -83.87802 2994 ft 113 kts 220°
2026-04-26 20:05 41.50719 -83.88436 2996 ft 113 kts 219°
2026-04-26 20:05 41.50080 -83.89065 2999 ft 115 kts 219°
2026-04-26 20:05 41.49434 -83.89696 3000 ft 115 kts 219°
2026-04-26 20:06 41.48789 -83.90320 2999 ft 114 kts 218°
2026-04-26 20:06 41.48147 -83.90940 2995 ft 113 kts 218°
2026-04-26 20:06 41.47719 -83.91352 2995 ft 112 kts 218°
2026-04-26 20:06 41.47081 -83.91966 2995 ft 113 kts 218°
2026-04-26 20:07 41.46444 -83.92579 2994 ft 112 kts 218°
2026-04-26 20:07 41.45808 -83.93190 2994 ft 113 kts 218°
2026-04-26 20:07 41.45173 -83.93801 2992 ft 112 kts 218°
2026-04-26 20:07 41.44539 -83.94409 2991 ft 112 kts 218°
2026-04-26 20:08 41.43917 -83.95006 2992 ft 111 kts 218°
2026-04-26 20:08 41.43290 -83.95609 2994 ft 111 kts 218°
2026-04-26 20:08 41.42658 -83.96216 2996 ft 112 kts 218°
2026-04-26 20:08 41.42024 -83.96825 2994 ft 112 kts 218°
2026-04-26 20:09 41.41393 -83.97431 2993 ft 111 kts 218°
2026-04-26 20:09 41.40764 -83.98035 2960 ft 114 kts 218°
2026-04-26 20:09 41.40136 -83.98637 2995 ft 111 kts 218°
2026-04-26 20:09 41.39506 -83.99241 2995 ft 112 kts 218°
2026-04-26 20:10 41.38869 -83.99852 2997 ft 113 kts 218°
2026-04-26 20:10 41.38228 -84.00468 2995 ft 113 kts 218°
2026-04-26 20:10 41.37591 -84.01078 2998 ft 112 kts 218°
2026-04-26 20:10 41.36959 -84.01684 2996 ft 112 kts 218°
2026-04-26 20:11 41.36318 -84.02297 2996 ft 112 kts 218°
2026-04-26 20:11 41.35686 -84.02903 2995 ft 112 kts 218°
2026-04-26 20:11 41.35056 -84.03505 2996 ft 112 kts 218°
2026-04-26 20:12 41.33780 -84.04727 2995 ft 112 kts 218°
2026-04-26 20:12 41.33140 -84.05340 2993 ft 112 kts 218°
2026-04-26 20:12 41.32500 -84.05952 2995 ft 112 kts 218°
2026-04-26 20:12 41.31862 -84.06562 2994 ft 112 kts 218°
2026-04-26 20:13 41.31229 -84.07168 2995 ft 112 kts 218°
2026-04-26 20:13 41.30596 -84.07773 2996 ft 112 kts 218°
2026-04-26 20:13 41.29958 -84.08383 2998 ft 113 kts 218°
2026-04-26 20:13 41.29322 -84.08990 2995 ft 112 kts 218°
2026-04-26 20:14 41.28694 -84.09590 2995 ft 111 kts 218°
2026-04-26 20:14 41.28063 -84.10194 2994 ft 112 kts 218°
2026-04-26 20:14 41.27432 -84.10796 2995 ft 112 kts 218°
2026-04-26 20:14 41.26801 -84.11398 2994 ft 112 kts 218°
2026-04-26 20:15 41.26169 -84.12000 2995 ft 112 kts 218°
2026-04-26 20:15 41.25528 -84.12612 2993 ft 112 kts 218°
2026-04-26 20:15 41.24930 -84.13245 2997 ft 111 kts 232°
2026-04-26 20:15 41.24617 -84.14195 3001 ft 110 kts 254°
2026-04-26 20:16 41.24377 -84.15158 3000 ft 109 kts 252°
2026-04-26 20:16 41.24137 -84.16119 3001 ft 110 kts 253°
2026-04-26 20:16 41.23895 -84.17083 3003 ft 110 kts 253°
2026-04-26 20:16 41.23654 -84.18050 3004 ft 111 kts 253°
2026-04-26 20:17 41.23412 -84.19020 3003 ft 110 kts 253°
2026-04-26 20:17 41.23170 -84.19984 3001 ft 110 kts 253°
2026-04-26 20:17 41.22930 -84.20941 3002 ft 109 kts 253°
2026-04-26 20:17 41.22772 -84.21575 3002 ft 109 kts 253°
2026-04-26 20:18 41.22449 -84.22863 3002 ft 110 kts 253°
2026-04-26 20:18 41.22207 -84.23825 3002 ft 110 kts 253°
2026-04-26 20:18 41.21965 -84.24791 3004 ft 111 kts 253°
2026-04-26 20:18 41.21726 -84.25746 3004 ft 110 kts 253°
2026-04-26 20:19 41.21484 -84.26710 3003 ft 110 kts 253°
2026-04-26 20:19 41.21243 -84.27669 3002 ft 109 kts 253°
2026-04-26 20:19 41.21003 -84.28625 3002 ft 110 kts 253°
2026-04-26 20:19 41.20759 -84.29598 3003 ft 110 kts 253°
2026-04-26 20:20 41.20516 -84.30562 3003 ft 110 kts 253°
2026-04-26 20:20 41.20274 -84.31522 3006 ft 111 kts 253°
2026-04-26 20:20 41.20023 -84.32524 3007 ft 111 kts 252°
2026-04-26 20:20 41.19774 -84.33512 3005 ft 111 kts 253°
2026-04-26 20:21 41.19529 -84.34485 3006 ft 111 kts 253°
2026-04-26 20:21 41.19285 -84.35454 3005 ft 110 kts 253°
2026-04-26 20:21 41.19042 -84.36420 3004 ft 110 kts 253°
2026-04-26 20:21 41.18798 -84.37383 3005 ft 110 kts 253°
2026-04-26 20:22 41.18555 -84.38347 3004 ft 110 kts 252°
2026-04-26 20:22 41.18311 -84.39315 3009 ft 111 kts 252°
2026-04-26 20:22 41.18063 -84.40300 3006 ft 113 kts 253°
2026-04-26 20:22 41.17814 -84.41287 3005 ft 112 kts 252°
2026-04-26 20:23 41.17567 -84.42262 3005 ft 111 kts 253°
2026-04-26 20:23 41.17321 -84.43236 3003 ft 111 kts 252°
2026-04-26 20:23 41.17074 -84.44214 3009 ft 113 kts 252°
2026-04-26 20:23 41.16807 -84.45181 3018 ft 114 kts 252°
2026-04-26 20:24 41.16564 -84.46193 3006 ft 115 kts 253°
2026-04-26 20:24 41.16316 -84.47192 3007 ft 113 kts 253°
2026-04-26 20:24 41.16068 -84.48178 3004 ft 112 kts 252°
2026-04-26 20:24 41.15820 -84.49161 3004 ft 112 kts 253°
2026-04-26 20:25 41.15572 -84.50139 3003 ft 112 kts 253°
2026-04-26 20:25 41.15489 -84.50469 3002 ft 112 kts 252°
2026-04-26 20:25 41.15081 -84.52079 3000 ft 110 kts 253°
2026-04-26 20:25 41.14914 -84.52735 2997 ft 111 kts 253°
2026-04-26 20:26 41.14669 -84.53701 2999 ft 111 kts 253°
2026-04-26 20:26 41.14422 -84.54674 2997 ft 111 kts 252°
2026-04-26 20:26 41.14175 -84.55642 2998 ft 111 kts 252°
2026-04-26 20:26 41.13924 -84.56628 3000 ft 111 kts 252°
2026-04-26 20:27 41.13677 -84.57602 3001 ft 112 kts 252°
2026-04-26 20:27 41.13429 -84.58578 3000 ft 112 kts 252°
2026-04-26 20:27 41.13181 -84.59548 2999 ft 111 kts 252°
2026-04-26 20:27 41.12935 -84.60515 2997 ft 110 kts 252°
2026-04-26 20:28 41.12689 -84.61480 3000 ft 111 kts 253°
2026-04-26 20:28 41.12443 -84.62450 2998 ft 111 kts 252°
2026-04-26 20:28 41.12192 -84.63433 2998 ft 111 kts 252°
2026-04-26 20:28 41.11947 -84.64392 3000 ft 112 kts 252°
2026-04-26 20:29 41.11700 -84.65363 2999 ft 111 kts 252°
2026-04-26 20:29 41.11453 -84.66327 2998 ft 110 kts 252°
2026-04-26 20:29 41.11203 -84.67306 2996 ft 110 kts 253°
2026-04-26 20:29 41.10958 -84.68263 2997 ft 110 kts 252°
2026-04-26 20:30 41.10710 -84.69235 2996 ft 110 kts 252°
2026-04-26 20:30 41.10467 -84.70182 2998 ft 110 kts 253°